Regional Weather Roundup
Issued by NWS Northern Indiana

Home | Current Version | Previous Version | Graphics & Text | Print | Product List | Glossary On
Versions: 1 2 3 4 5 6 7 8 9 10 11 12 13 14 15 16 17 18 19 20 21 22 23 24 25 26 27 28 29 30 31 32 33 34 35 36 37 38 39 40 41 42 43 44 45 46 47 48 49 50
000
ASUS43 KIWX 290800
RWRIWX

KIWX WEATHER ROUNDUP
NATIONAL WEATHER SERVICE NORTHERN INDIANA
400 AM EDT SAT APR 29 2017

NOTE: "FAIR" INDICATES FEW OR NO CLOUDS BELOW 12,000 FEET WITH NO
SIGNIFICANT WEATHER AND/OR OBSTRUCTIONS TO VISIBILITY.

* THESE STATIONS ARE NOT UNDER NWS QUALITY CONTROL. THEY ALSO MAY NOT
  REPORT WEATHER SUCH AS PRECIPITATION OR FOG.

INZ001>027-290900-
NORTHERN INDIANA

CITY           SKY/WX    TMP DP  RH WIND       PRES   REMARKS
SOUTH BEND     CLOUDY    50  47  89 N12       29.97F
GOSHEN         CLOUDY    51  47  86 N5        29.95F
MONTICELLO*    CLOUDY    53  52  95 E3        29.93R
ANGOLA*        CLOUDY    52  39  62 CALM      29.96S
FORT WAYNE     CLOUDY    54  52  93 E7        29.95F FOG
PERU/GRISSOM   CLOUDY    53  53 100 NE5       29.93R FOG

$$
INZ028>050-290900-
CENTRAL INDIANA

CITY           SKY/WX    TMP DP  RH WIND       PRES   REMARKS
LAFAYETTE      CLOUDY    54  54 100 NE7       29.94R FOG
KOKOMO*        CLOUDY    54  53  97 E3        29.95R FOG
MUNCIE*        LGT RAIN  58  55  90 E3        29.94R FOG
INDIANAPOLIS   TSTM      57  56  96 N10       29.91R FOG

$$
MIZ043>046-050>051-056>058-064>065-071>073-077>080-290900-
SOUTHWEST LOWER MICHIGAN

CITY           SKY/WX    TMP DP  RH WIND       PRES   REMARKS
BATTLE CREEK   CLOUDY    53  46  77 N7        30.01F
BENTON HARBOR  CLOUDY    51  41  68 N5        30.02R
HOLLAND        LGT RAIN  46  41  82 NE8       30.07R
GRAND RAPIDS   CLOUDY    47  41  80 N10       30.06R
KALAMAZOO      CLOUDY    53  43  68 N8        30.01F

$$
OHZ001>008-015>018-024>025-290900-
NORTHWEST OHIO

CITY           SKY/WX    TMP DP  RH WIND       PRES   REMARKS
DEFIANCE       CLOUDY    53  51  93 NE7       29.96S
FINDLAY        CLOUDY    56  52  86 NE8       29.95S
TOLEDO EXPRESS CLOUDY    53  53 100 NE5       29.97S FOG
TOLEDO METCALF CLOUDY    55  55 100 NE3       29.98F FOG
LIMA           CLOUDY    57  56  96 N5        29.94S

$$
AND FOR LAKE MICHIGAN COASTAL AND OPEN LAKE BUOY OBSERVATIONS

STATION/POSITION TEMP    WIND        PRES    VSBY  WAVE
                 AIR SEA DIR/SP/G                  HT/PER
                 (F)     (DEG/KT/KT) (MB)    (MI)  (FT/S)
CALUMET HARBOR    45     350/ 12/ 15 1016.6R
MICHIGAN CITY     45      30/ 18/ 19   N/A
BURNS HARBOR      47      50/ 14/ 18 1016.6F
SOUTH LAKE BUOY   43 41   30/ 14/ 16 1016.7          2/ 4
4 MI NW BRIDGMAN  49 49   50/ 14/ 17 1016.7F         4/ 4
MICHIGAN CITY     45 46                N/A           4/ 4

$$
&&



USA.gov is the U.S. government's official web portal to all federal, state and local government web resources and services.